Regional Weather Roundup
Issued by NWS San Angelo, TX

Home | Current Version | Previous Version | Text Only | Print | Product List | Glossary On
Versions: 1 2 3 4 5 6 7 8 9 10 11 12 13 14 15 16 17 18 19 20 21 22 23 24 25 26 27 28 29 30 31 32 33 34 35 36 37 38 39 40 41 42 43 44 45 46 47 48 49 50
000
ASUS44 KSJT 290502
RWRSJT
WEST CENTRAL TEXAS REGIONAL WEATHER ROUNDUP
NATIONAL WEATHER SERVICE SAN ANGELO TX
1200 AM CDT SUN MAR 29 2015

NOTE: "FAIR" INDICATES FEW OR NO CLOUDS BELOW 12,000 FEET WITH NO
SIGNIFICANT WEATHER AND/OR OBSTRUCTIONS TO VISIBILITY.

TXZ049-054-064>066-071>073-076>078-098-099-113-114-127-128-139-140-
154-155-168>170-290600
...LOCATIONS ACROSS WEST CENTRAL TEXAS...

CITY           SKY/WX    TMP DP  RH WIND       PRES   REMARKS
SAN ANGELO     CLEAR     69  38  32 S21       29.99S
ABILENE        CLEAR     72  35  25 S22G31    29.97R
DYESS AFB      CLEAR     72  40  31 SW18      29.96R
JUNCTION       CLEAR     67  37  33 S9        30.05S
SWEETWATER     NOT AVBL
BROWNWOOD      NOT AVBL
COLEMAN        CLEAR     66  40  39 S12       30.01S
SONORA         NOT AVBL
OZONA          FAIR      64  36  34 S10       30.08S
BRADY          CLEAR     66  37  34 S7        30.03F
$$

TEXAS PANHANDLE/OKLAHOMA PANHANDLE

CITY           SKY/WX    TMP DP  RH WIND       PRES   REMARKS
AMARILLO       CLEAR     60  31  33 S13       30.01S
BORGER         CLEAR     67  34  29 S17G25    29.96F
CANADIAN       CLEAR     65  48  54 S15G22    29.95S
DALHART        CLEAR     51  25  36 S10       29.98F
DUMAS          CLEAR     53  25  33 S10       29.97F
GUYMON         NOT AVBL
HEREFORD       NOT AVBL
PAMPA          NOT AVBL
PERRYTON       NOT AVBL
$$

SOUTHERN PANHANDLE/SOUTH PLAINS/ROLLING PLAINS

CITY           SKY/WX    TMP DP  RH WIND       PRES   REMARKS
LUBBOCK        CLEAR     57  34  41 SE12      30.01S
SNYDER         NOT AVBL
CHILDRESS      CLEAR     60  46  59 SE10      29.97S
SEMINOLE       CLEAR     56  32  39 W7        30.04R
$$

PERMIAN BASIN

CITY           SKY/WX    TMP DP  RH WIND       PRES   REMARKS
MIDLAND        CLEAR     67  42  40 S12       30.02R
ODESSA         CLEAR     69  38  32 SW12      30.03S
WINK           CLEAR     62  34  35 E7        30.00R
$$

FAR WEST/SOUTHWEST MOUNTAINS/TRANS PECOS

CITY           SKY/WX    TMP DP  RH WIND       PRES   REMARKS
ALPINE         CLEAR     60  22  22 SW3       30.20S
DRYDEN           N/A     65  38  36 NE7       30.02S
EL PASO        CLEAR     77   3   5 CALM      30.09S
FORT STOCKTON  CLEAR     64  40  41 S13       30.04S
GUADALUPE PASS CLEAR     67  13  12 SW7       30.19S
MARFA          CLEAR     54  23  30 NW9       30.19S
PECOS          CLEAR     57  38  49 SW9       30.00S
$$

DALLAS/FORT WORTH METROPLEX

CITY           SKY/WX    TMP DP  RH WIND       PRES   REMARKS
DFW AIRPORT    CLEAR     68  44  42 S12       29.99S
FTW MEACHAM    CLEAR     65  46  50 SE9       29.98S
DAL-EXECUTIVE  CLEAR     67  45  45 S10       30.00S
GRAND PRAIRIE  NOT AVBL
ADDISON        CLEAR     72  44  36 S10       30.02S
MESQUITE       CLEAR     63  47  54 SE7       30.02S
LANCASTER      CLEAR     63  44  50 S8        30.02S
$$

NORTH CENTRAL TEXAS

CITY           SKY/WX    TMP DP  RH WIND       PRES   REMARKS
SHRMAN/DENISON CLEAR     64  52  67 E14       30.05R
GAINESVILLE    CLEAR     64  49  58 E9        30.03S
BRIDGEPORT     CLEAR     64  50  61 SE5       29.99F
DENTON         CLEAR     67  47  48 SE9       30.00R
WAXAHACHIE     CLEAR     61  48  63 SE6       30.03S
GRANBURY         N/A     65  47  50 E6        30.00R
$$

WESTERN NORTH TEXAS

CITY           SKY/WX    TMP DP  RH WIND       PRES   REMARKS
WICHITA FALLS  CLEAR     62  49  62 E12       29.96F
VERNON         CLEAR     60  46  59 NE7       29.96S
BRECKENRIDGE   NOT AVBL
COMANCHE       CLEAR     69  40  34 S20       29.99S
$$

CENTRAL AND SOUTH CENTRAL TEXAS

CITY           SKY/WX    TMP DP  RH WIND       PRES   REMARKS
AUSTIN/BERGSTM CLEAR     56  49  77 S7        30.08R
WACO           CLEAR     63  47  55 S9        30.02S
HILLSBORO      CLEAR     65  46  48 SE10      30.01F
TEMPLE         CLEAR     63  43  48 S14       30.03S
KILLEEN-GRAY   CLEAR     65  44  46 S13       30.04S
FORT HOOD      CLEAR     64  44  48 S8        30.03S
GEORGETOWN     CLEAR     66  46  48 S17       30.05S
LAGO VISTA     FAIR      65  47  52 S8        30.08S
SAN MARCOS     CLEAR     59  48  67 SW7       30.09S
NEW BRAUNFELS  CLEAR     63  53  70 SW10      30.07R
RANDOLPH AFB   CLEAR     63  54  71 S9        30.09S
SAN ANTONIO    CLEAR     66  54  65 S10       30.10R
STINSON        CLEAR     63  55  75 S6        30.08R
PLEASANTON     NOT AVBL
LA GRANGE      NOT AVBL
GIDDINGS       CLEAR     61  46  56 S8        30.12S
$$

EAST TEXAS

CITY           SKY/WX    TMP DP  RH WIND       PRES   REMARKS
PARIS          NOT AVBL
CLARKSVILLE    NOT AVBL
TYLER          CLEAR     65  45  48 S9        30.07R
LONGVIEW       CLEAR     59  49  69 E8        30.09R
PALESTINE      CLEAR     67  44  43 S7        30.08S
NACOGDOCHES    CLEAR     59  48  67 SE5       30.12R
$$

TEXAS HILL COUNTRY AND EDWARDS PLATEAU

CITY           SKY/WX    TMP DP  RH WIND       PRES   REMARKS
LLANO          NOT AVBL
HORSESHOE BAY  FAIR      68  46  45 S6        30.05R
KERRVILLE      CLEAR     64  45  50 S10       30.10S
FREDERICKSBRG  NOT AVBL
ROCKSPRINGS    NOT AVBL
HONDO          CLEAR     61  46  57 SE7       30.11R
UVALDE         NOT AVBL
DEL RIO        CLEAR     69  43  38 SE9       30.03R
$$

SOUTHEAST TEXAS

CITY           SKY/WX    TMP DP  RH WIND       PRES   REMARKS
COLLEGE STN    CLEAR     61  44  53 S7        30.08R
CALDWELL       NOT AVBL
CROCKETT       CLEAR     64  46  52 S6        30.12S
BRENHAM        CLEAR     64  48  56 S7        30.09F
HUNTSVILLE     CLEAR     64  45  49 S13       30.09R
CONROE         CLEAR     57  45  64 CALM      30.11S
HOUSTON BUSH   CLEAR     65  58  78 S7        30.11S
HOUSTON HOBBY  FAIR      62  60  93 S5        30.12S
PERLAND        CLEAR     63  61  93 SE5       30.14S
WHARTON        CLEAR     59  58  96 S6        30.12F
$$

THE UPPER TEXAS COAST

CITY           SKY/WX    TMP DP  RH WIND       PRES   REMARKS
ORANGE         CLEAR     63  59  88 MISG      30.17R
PORT ARTHUR    CLEAR     61  59  93 S5        30.14S
GALVESTON      CLEAR     65  64  97 S10       30.14F
ANGLETON       CLEAR     61  61 100 S7        30.13S
BAY CITY       CLEAR     60  60 100 S5        30.12F
$$

TEXAS COASTAL BEND, RIO GRANDE PLAINS DEEP SOUTH TEXAS

CITY           SKY/WX    TMP DP  RH WIND       PRES   REMARKS
VICTORIA       CLEAR     64  60  87 S13       30.12S
BEEVILLE       FAIR      62  60  93 S13       30.11F
ROCKPORT       CLEAR     67  60  78 S12G17    30.13R
PORT ARANSAS   CLEAR     65  62  90 S14       30.13S
PORT LAVACA    CLEAR     64  61  88 S12       30.13S
CORPUS CHRISTI CLEAR     63  60  90 S12       30.13S
KINGSVILLE NAS CLEAR     65  60  84 S14       30.13S
COTULLA        CLEAR     66  46  48 SE8       30.08R
LAREDO         CLEAR     67  49  52 SE15      30.09S
BROWNSVILLE    CLEAR     63  61  93 S9        30.17S
PORT ISABEL    CLEAR     65  61  87 S8        30.16S
HEBBRONVILLE   NOT AVBL
MCALLEN        CLEAR     67  59  75 SE17      30.14S
WESLACO        NOT AVBL
FALFURRIAS     CLEAR     61  56  84 S6        30.12F
EDINBURG       CLEAR     65  59  80 S12       30.14F
$$


USA.gov is the U.S. government's official web portal to all federal, state and local government web resources and services.